| time (UTC) | temp C | wind direction | speed KPH | gust KPH | rain 1hr cm | rain 24hr cm | rain mn cm | humidity % | barometer mb |
| 20260507110005 | 11 | 320 | 3.2 | 9.7 | 0.00 | 0.00 | 0.00 | 77 | 1019.3 |
| 20260507104505 | 11 | 298 | 3.2 | 14.5 | 0.00 | 0.00 | 0.00 | 78 | 1019.5 |
| 20260507103003 | 11 | 276 | 3.2 | 11.3 | 0.00 | 0.00 | 0.00 | 78 | 1019.5 |
| 20260507101537 | 11 | 278 | 3.2 | 8.0 | 0.00 | 0.00 | 0.00 | 79 | 1019.6 |
| 20260507100035 | 11 | 301 | 1.6 | 9.7 | 0.00 | 0.00 | 0.00 | 79 | 1019.7 |
| 20260507094531 | 11 | 290 | 3.2 | 11.3 | 0.00 | 0.00 | 0.00 | 79 | 1019.8 |
| 20260507093026 | 11 | 290 | 6.4 | 17.7 | 0.00 | 0.00 | 0.00 | 79 | 1019.9 |
| 20260507091528 | 11 | 283 | 4.8 | 12.9 | 0.00 | 0.00 | 0.00 | 78 | 1020.0 |
| 20260507090022 | 12 | 288 | 1.6 | 14.5 | 0.00 | 0.00 | 0.00 | 78 | 1020.1 |
| 20260507084521 | 12 | 301 | 3.2 | 11.3 | 0.00 | 0.00 | 0.00 | 78 | 1020.1 |
| 20260507083017 | 12 | 8 | 4.8 | 9.7 | 0.00 | 0.00 | 0.00 | 78 | 1020.1 |
| 20260507081516 | 12 | 283 | 1.6 | 9.7 | 0.00 | 0.00 | 0.00 | 79 | 1020.1 |
| 20260507080015 | 12 | 312 | 4.8 | 12.9 | 0.00 | 0.00 | 0.00 | 79 | 1020.0 |
| 20260507074511 | 12 | 307 | 6.4 | 11.3 | 0.00 | 0.00 | 0.00 | 80 | 1020.1 |
| 20260507073010 | 12 | 288 | 1.6 | 9.7 | 0.00 | 0.00 | 0.00 | 81 | 1020.0 |
| 20260507071512 | 12 | 307 | 3.2 | 11.3 | 0.00 | 0.00 | 0.00 | 81 | 1019.9 |
| 20260507070013 | 12 | 284 | 0.0 | 9.7 | 0.00 | 0.00 | 0.00 | 81 | 1019.8 |
| 20260507064546 | 12 | 278 | 6.4 | 12.9 | 0.00 | 0.00 | 0.00 | 80 | 1019.8 |
| 20260507063037 | 12 | 292 | 6.4 | 14.5 | 0.00 | 0.00 | 0.00 | 80 | 1019.8 |
| 20260507061531 | 12 | 297 | 6.4 | 12.9 | 0.00 | 0.00 | 0.00 | 80 | 1020.0 |
| 20260507060030 | 12 | 285 | 3.2 | 16.1 | 0.00 | 0.00 | 0.00 | 80 | 1020.0 |
| 20260507054530 | 12 | 281 | 6.4 | 11.3 | 0.00 | 0.00 | 0.00 | 80 | 1019.9 |
| 20260507053026 | 12 | 294 | 0.0 | 11.3 | 0.00 | 0.00 | 0.00 | 80 | 1019.9 |
| 20260507051522 | 12 | 309 | 4.8 | 11.3 | 0.00 | 0.00 | 0.00 | 79 | 1019.9 |
| 20260507050028 | 13 | 285 | 4.8 | 12.9 | 0.00 | 0.00 | 0.00 | 79 | 1019.9 |
| 20260507044519 | 13 | 334 | 6.4 | 17.7 | 0.00 | 0.00 | 0.00 | 78 | 1020.0 |
| 20260507043018 | 13 | 291 | 6.4 | 19.3 | 0.00 | 0.00 | 0.00 | 78 | 1019.8 |
| 20260507041513 | 13 | 328 | 8.0 | 17.7 | 0.00 | 0.00 | 0.00 | 77 | 1019.7 |
| 20260507040010 | 13 | 294 | 8.0 | 24.1 | 0.00 | 0.00 | 0.00 | 77 | 1019.5 |
| 20260507034509 | 14 | 328 | 6.4 | 22.5 | 0.00 | 0.00 | 0.00 | 77 | 1019.1 |
| 20260507033007 | 14 | 334 | 3.2 | 22.5 | 0.00 | 0.00 | 0.00 | 77 | 1019.0 |
| 20260507031504 | 15 | 329 | 3.2 | 17.7 | 0.00 | 0.00 | 0.00 | 77 | 1018.8 |
| 20260507030004 | 15 | 284 | 4.8 | 19.3 | 0.00 | 0.00 | 0.00 | 76 | 1018.6 |
| 20260507024502 | 15 | 297 | 1.6 | 9.7 | 0.00 | 0.00 | 0.00 | 76 | 1018.4 |
| 20260507023001 | 15 | 304 | 1.6 | 11.3 | 0.00 | 0.00 | 0.00 | 75 | 1018.3 |
| 20260507021533 | 16 | 283 | 4.8 | 14.5 | 0.00 | 0.00 | 0.00 | 74 | 1018.3 |
| 20260507020030 | 16 | 348 | 6.4 | 19.3 | 0.00 | 0.00 | 0.00 | 73 | 1018.4 |
| 20260507014537 | 17 | 307 | 6.4 | 19.3 | 0.00 | 0.00 | 0.00 | 73 | 1018.6 |
| 20260507013034 | 17 | 282 | 8.0 | 17.7 | 0.00 | 0.00 | 0.00 | 72 | 1018.6 |
| 20260507011532 | 17 | 321 | 6.4 | 14.5 | 0.00 | 0.00 | 0.00 | 71 | 1018.5 |
| 20260507010029 | 18 | 310 | 4.8 | 17.7 | 0.00 | 0.00 | 0.00 | 70 | 1018.5 |
| 20260507004520 | 18 | 23 | 8.0 | 16.1 | 0.00 | 0.00 | 0.00 | 71 | 1018.3 |
| 20260507003019 | 18 | 326 | 3.2 | 14.5 | 0.00 | 0.00 | 0.00 | 72 | 1018.3 |
| 20260507001526 | 19 | 339 | 3.2 | 9.7 | 0.00 | 0.00 | 0.00 | 71 | 1018.3 |
| 20260507000018 | 18 | 306 | 1.6 | 12.9 | 0.00 | 0.00 | 0.00 | 71 | 1018.4 |
| 20260506234517 | 19 | 328 | 1.6 | 8.0 | 0.00 | 0.00 | 0.00 | 68 | 1018.3 |
| 20260506233015 | 19 | 59 | 1.6 | 6.4 | 0.00 | 0.00 | 0.00 | 68 | 1018.3 |
| 20260506231513 | 19 | 46 | 0.0 | 6.4 | 0.00 | 0.00 | 0.00 | 68 | 1018.4 |
| 20260506230011 | 19 | 288 | 4.8 | 9.7 | 0.00 | 0.00 | 0.00 | 68 | 1018.5 |
| 20260506224509 | 18 | 328 | 1.6 | 8.0 | 0.00 | 0.00 | 0.00 | 69 | 1018.7 |
| 20260506223007 | 19 | 320 | 4.8 | 9.7 | 0.00 | 0.00 | 0.00 | 68 | 1018.9 |
| 20260506221504 | 19 | 245 | 0.0 | 6.4 | 0.00 | 0.00 | 0.00 | 68 | 1018.9 |
| 20260506220002 | 19 | 147 | 0.0 | 6.4 | 0.00 | 0.00 | 0.00 | 70 | 1019.0 |
| 20260506214600 | 18 | 115 | 1.6 | 6.4 | 0.00 | 0.00 | 0.00 | 72 | 1018.9 |
| 20260506213053 | 17 | 183 | 0.0 | 4.8 | 0.00 | 0.00 | 0.00 | 75 | 1019.0 |
| 20260506211552 | 17 | 4 | 0.0 | 3.2 | 0.00 | 0.00 | 0.00 | 74 | 1019.2 |
| 20260506210050 | 16 | 296 | 3.2 | 8.0 | 0.00 | 0.00 | 0.00 | 77 | 1019.3 |
| 20260506204549 | 16 | 19 | 0.0 | 6.4 | 0.00 | 0.00 | 0.00 | 78 | 1019.3 |
| 20260506203017 | 16 | 332 | 1.6 | 6.4 | 0.00 | 0.00 | 0.00 | 78 | 1019.3 |
| 20260506201519 | 16 | 29 | 0.0 | 6.4 | 0.00 | 0.00 | 0.00 | 78 | 1019.3 |
| 20260506200013 | 16 | 59 | 1.6 | 4.8 | 0.00 | 0.00 | 0.00 | 78 | 1019.4 |
| 20260506194513 | 15 | 325 | 1.6 | 8.0 | 0.00 | 0.00 | 0.00 | 79 | 1019.6 |
| 20260506193014 | 16 | 224 | 0.0 | 4.8 | 0.00 | 0.00 | 0.00 | 79 | 1019.7 |
| 20260506191510 | 16 | 293 | 1.6 | 6.4 | 0.00 | 0.00 | 0.00 | 79 | 1019.5 |
| 20260506190007 | 16 | 274 | 1.6 | 8.0 | 0.00 | 0.00 | 0.00 | 79 | 1019.6 |
| 20260506184504 | 15 | 109 | 0.0 | 6.4 | 0.00 | 0.00 | 0.00 | 80 | 1019.5 |
| 20260506183003 | 15 | 341 | 0.0 | 1.6 | 0.00 | 0.00 | 0.00 | 81 | 1019.4 |
| 20260506181502 | 15 | 242 | 1.6 | 4.8 | 0.00 | 0.00 | 0.00 | 81 | 1019.5 |
| 20260506180057 | 15 | 48 | 0.0 | 1.6 | 0.00 | 0.00 | 0.00 | 81 | 1019.5 |
| 20260506174557 | 15 | 294 | 0.0 | 3.2 | 0.00 | 0.00 | 0.00 | 80 | 1019.5 |
| 20260506173124 | 14 | 125 | 0.0 | 3.2 | 0.00 | 0.00 | 0.00 | 81 | 1019.2 |
| 20260506171556 | 14 | 292 | 1.6 | 4.8 | 0.00 | 0.00 | 0.00 | 81 | 1019.2 |
| 20260506170046 | 13 | 254 | 0.0 | 8.0 | 0.00 | 0.00 | 0.00 | 83 | 1019.2 |
| 20260506164554 | 13 | 293 | 1.6 | 6.4 | 0.00 | 0.00 | 0.00 | 82 | 1019.1 |
| 20260506163047 | 13 | 336 | 3.2 | 6.4 | 0.00 | 0.00 | 0.00 | 83 | 1019.3 |
| 20260506161544 | 13 | 252 | 0.0 | 1.6 | 0.00 | 0.00 | 0.00 | 83 | 1019.0 |
| 20260506160045 | 13 | 169 | 0.0 | 4.8 | 0.00 | 0.00 | 0.00 | 83 | 1018.8 |
| 20260506154548 | 13 | 123 | 0.0 | 4.8 | 0.00 | 0.00 | 0.00 | 85 | 1018.5 |
| 20260506153046 | 12 | 290 | 0.0 | 6.4 | 0.00 | 0.00 | 0.00 | 86 | 1019.1 |
| 20260506151540 | 12 | 315 | 1.6 | 8.0 | 0.00 | 0.00 | 0.00 | 86 | 1019.3 |
| 20260506150036 | 12 | 309 | 4.8 | 11.3 | 0.00 | 0.00 | 0.00 | 86 | 1019.2 |
| 20260506144538 | 12 | 285 | 4.8 | 9.7 | 0.00 | 0.00 | 0.00 | 85 | 1019.0 |
| 20260506143036 | 12 | 349 | 3.2 | 6.4 | 0.00 | 0.00 | 0.00 | 86 | 1018.9 |
| 20260506141533 | 12 | 331 | 0.0 | 6.4 | 0.00 | 0.00 | 0.00 | 86 | 1018.4 |
| 20260506140028 | 13 | 292 | 0.0 | 6.4 | 0.00 | 0.00 | 0.00 | 86 | 1018.6 |
| 20260506134526 | 13 | 297 | 0.0 | 1.6 | 0.00 | 0.00 | 0.00 | 86 | 1018.4 |
| 20260506133026 | 12 | 285 | 0.0 | 0.0 | 0.00 | 0.00 | 0.00 | 86 | 1018.3 |
| 20260506131530 | 12 | 262 | 0.0 | 1.6 | 0.00 | 0.00 | 0.00 | 86 | 1018.1 |
| 20260506130117 | 12 | 252 | 0.0 | 0.0 | 0.00 | 0.00 | 0.00 | 86 | 1017.9 |
| 20260506124558 | 12 | 285 | 0.0 | 0.0 | 0.00 | 0.00 | 0.00 | 86 | 1017.8 |
| 20260506123048 | 13 | 248 | 0.0 | 1.6 | 0.00 | 0.00 | 0.00 | 86 | 1017.7 |
| 20260506121547 | 13 | 290 | 1.6 | 6.4 | 0.00 | 0.00 | 0.00 | 86 | 1017.7 |
| 20260506120046 | 13 | 294 | 0.0 | 4.8 | 0.00 | 0.00 | 0.00 | 86 | 1017.6 |
| 20260506114544 | 13 | 294 | 0.0 | 3.2 | 0.00 | 0.00 | 0.00 | 85 | 1017.5 |
| 20260506113050 | 13 | 288 | 1.6 | 4.8 | 0.00 | 0.00 | 0.00 | 85 | 1017.3 |
| 20260506111541 | 13 | 287 | 1.6 | 9.7 | 0.00 | 0.00 | 0.00 | 85 | 1017.3 |